EHI
0 0 0 0 0 0 0 0 0 0 0 0 0 0 0 0 0 0 0 0 0 0 0 0 0 0 0 0 0 0 0 0 0 0 0 0 0 0
0 0 0 0 0 0 0 0 0 0 0 0 0 0 0 0 0 0 0 0 0 0 0 0 0 0 0 0 0 0 0 0 0 0 0 0 0 0
0 0 0 0 0 0 0 0 0 0 0 0 0 0 0 0 0 0 0 0 0 0 0 0 0 0 0 0 0 0 0 0 0 0 0 0 0 0
0 0 0 0 0 0 0 0 0 0 0 0 0 0 0 0 0 0 0 0 0 0 0 0 0 0 0 0 0 0 0 0 0 0 0 0 0 0
0 0 0 0 0 0 0 0 0 0 0 0 0 0 0 0 0 0 0 0 0 0 0 0 0 0 0 0 0 0 0 0 0 0 0 0 0 0
0 0 0 0 0 0 0 0 0 0 0 0 0 0 0 0 0 0 0 0 0 0 0 0 0 0 0 0 0 0 0 0 0 0 0 0 0 0
0 0 0 0 0 0 0 0 0 0 0 0 0 0 0 0 0 0 0 0 0 0 0 0 0 0 0 0 0 0 0 0 0 0 0 0 0 0
0 0 0 0 0 0 0 0 0 0 0 0 0 0 0 0 0 0 0 0 0 0 0 0 0 0 0 0 0 0 0 0 0 0 0 0 0 0
0 0 0 0 0 0 0 0 0 0 0 0 0 0 0 0 0 0 0 0 0 0 0 0 0 0 0 0 0 0 0 0 0 0 0 0 0 0
0 0 0 0 0 0 0 0 0 0 0 0 0 0 0 0 0 0 0 0 0 0 0 0 0 0 0 0 0 0 0 0 0 0 0 0 0 0
0 0 0 0 0 0 0 0 0 0 0 0 0 0 0 0 0 0 0 0 0 0 0 0 0 0 0 0 0 0 0 0 0 0 0 0 0 0
0 0 0 0 0 0 0 0 0 0 0 0 0 0 0 0 0 0 0 0 0 0 0 0 0 0 0 0 0 0 0 0 0 0 0 0 0 0
0 0 0 0 0 0 0 0 0 0 0 0 0 0 0 0 0 0 0 0 0 0 0 0 0 0 0 0 0 0 0 0 0 0 0 0 0 0
0 0 0 0 0 0 0 0 0 0 0 0 0 0 0 0 0 0 0 0 0 0 0 0 0 0 0 0 0 0 0 0 0 0 0 0 0 0
0 0 0 0 0 0 0 0 0 0 0 0 0 0 0 0 0 0 0 0 0 0 0 0 0 0 0 0 0 0 0 0 0 0 0 0 0 0
0 0 0 0 0 0 0 0 0 0 0 0 0 0 0 0 0 0 0 0 0 0 0 0 0 0 0 0 0 0 0 0 0 0 0 0 0 0
0 0 0 0 0 0 0 0 0 0 0 0 0 0 0 0 0 0 0 0 0 0 0 0 0 0 0 0 0 0 0 0 0 0 0 0 0 0
0 0 0 0 0 0 0 0 0 0 0 0 0 0 0 0 0 0 0 0 0 0 0 0 0 0 0 0 0 0 0 0 0 0 0 0 0 0
0 0 0 0 0 0 0 0 0 0 0 0 0 0 0 0 0 0 0 0 0 0 0 0 0 0 0 0 0 0 0 0 0 0 0 0 0 0
0 0 0 0 0 0 0 0 0 0 0 0 0 0 0 0 0 0 0 0 0 0 0 0 0 0 0 0 0 0 0 0 0 0 0 0 0 0
0 0 0 0 0 0 0 0 0 0 0 0 0 0 0 0 0 0 0 0 0 0 0 0 0 0 0 0 0 0 0 0 0 0 0 0 0 0
0 0 0 0 0 0 0 0 0 0 0 0 0 0 0 0 0 0 0 0 0 0 0 0 0 0 0 0 0 0 0 0 0 0 0 0 0 0
0 0 0 0 0 0 0 0 0 0 0 0 0 0 0 0 0 0 0 0 0 0 0 0 0 0 0 0 0 0 0 0 0 0 0 0 0 0
Wind_Speed
3 3 3 3 3 3 4 4 5 7 7 6 5 5 5 5 7 8 9 10 12 13 13 13 13 14 14 14 15 16 16 16 17 17 18 17 18 18
2 3 3 3 3 3 3 4 5 6 7 6 6 6 7 6 8 9 9 12 12 12 13 13 13 14 14 14 15 15 16 16 16 16 17 17 18 18
2 3 3 3 3 3 3 4 4 5 7 7 6 7 8 9 8 8 8 8 7 10 12 13 13 14 14 14 15 15 15 16 16 16 17 18 18 18
3 3 3 3 4 3 3 4 5 5 7 9 7 7 8 9 9 9 8 7 8 10 12 14 14 13 14 14 15 15 15 15 16 16 17 18 18 18
3 3 4 4 4 4 4 4 4 5 5 7 7 6 7 7 9 8 9 7 8 8 11 12 13 13 14 14 14 15 15 15 16 16 17 18 18 18
3 3 4 4 5 5 5 5 5 5 6 6 7 7 6 7 7 7 7 7 7 7 9 10 11 13 14 14 14 14 14 15 16 17 17 17 17 18
3 3 3 4 5 5 5 5 5 5 5 6 6 7 6 6 6 6 8 8 8 6 7 7 8 8 8 10 11 13 14 15 16 16 16 16 17 18
3 3 3 4 4 6 7 7 7 7 7 7 7 8 9 8 7 7 7 7 7 5 7 8 7 8 7 7 11 14 14 15 15 16 16 17 17 18
3 3 3 3 5 4 5 6 7 8 9 9 9 9 10 9 9 9 8 9 9 7 7 9 8 8 7 8 13 14 14 15 15 16 16 17 17 18
3 4 4 4 4 6 6 6 7 7 8 7 8 9 9 9 9 9 9 10 10 7 6 8 8 8 8 8 11 12 13 14 15 16 17 17 17 17
3 4 4 5 6 8 6 7 7 7 7 9 11 12 13 13 11 7 7 7 8 7 5 6 7 8 8 8 8 10 12 14 15 16 17 17 16 16
3 3 5 6 7 8 6 6 8 8 8 8 8 8 9 9 9 7 6 6 7 6 4 5 6 6 7 5 6 7 8 11 13 15 16 16 15 10
3 3 4 7 8 9 8 6 8 10 8 8 7 6 6 5 5 5 5 6 7 7 5 5 5 5 6 7 7 7 7 8 8 9 11 14 13 11
4 4 4 8 9 9 7 7 10 9 5 5 5 5 5 6 5 6 6 6 7 9 8 7 6 6 7 8 8 7 7 7 7 7 7 10 11 12
4 6 8 8 8 6 7 8 7 5 4 5 5 5 6 6 7 6 6 6 7 7 6 7 7 6 7 7 8 8 8 7 6 7 7 7 7 7
4 5 6 6 5 5 6 5 4 4 5 5 5 6 5 5 5 5 5 5 5 5 5 6 6 7 6 8 7 8 7 6 7 7 7 7 7 6
5 3 3 3 3 3 4 4 4 4 4 4 5 5 6 6 6 5 5 5 5 6 6 5 5 5 7 7 7 7 7 7 7 7 7 7 7 6
4 3 3 3 4 4 4 4 4 4 4 5 5 5 6 6 6 6 5 5 6 6 6 5 5 5 4 4 6 7 7 7 7 7 6 7 8 7
3 3 3 4 4 4 4 4 5 5 5 5 5 5 5 5 6 6 6 6 6 6 6 6 5 5 6 7 4 4 6 7 7 6 6 6 7 8
3 3 4 4 4 4 4 5 5 5 5 5 5 5 5 5 6 6 6 7 7 7 6 5 5 5 6 7 7 6 7 7 6 7 7 7 7 8
3 3 4 4 4 4 4 4 5 5 5 5 5 5 5 5 5 6 6 8 7 6 7 7 6 8 6 5 6 6 6 6 7 7 7 7 7 6
3 4 4 4 4 4 5 4 5 5 5 5 5 5 5 5 6 7 6 6 6 6 7 7 7 6 5 5 6 8 8 7 7 8 8 8 5 5
4 4 4 4 4 4 4 5 6 5 5 5 5 5 5 5 5 6 6 6 6 7 7 7 6 5 5 5 6 7 9 9 7 6 5 7 8 9
Wind_Direction
247 252 256 260 265 268 267 268 274 283 285 288 289 291 298 298 303 294 292 298 299 299 300 301 301 299 299 298 295 293 292 292 291 287 285 286 285 285
254 254 263 270 275 274 268 268 268 273 279 291 291 293 298 296 298 293 294 296 291 295 297 299 300 300 298 297 297 296 292 292 292 290 289 289 288 287
251 256 264 271 273 276 278 274 270 269 274 285 290 295 297 298 298 297 297 295 293 294 296 297 299 299 299 299 298 296 295 294 291 290 289 289 288 287
260 261 268 275 274 277 275 276 277 275 277 283 288 292 293 298 299 299 298 295 295 297 297 298 297 296 296 296 296 296 295 294 292 291 289 289 289 289
268 266 272 277 280 284 283 281 281 282 279 281 287 291 291 295 299 297 295 294 295 295 294 292 294 296 296 295 295 295 295 294 293 291 289 289 289 289
279 277 281 282 285 288 286 285 286 284 283 283 285 289 291 295 294 296 298 300 297 296 295 295 295 292 289 291 292 293 293 292 291 291 290 289 289 288
290 289 293 299 300 295 291 290 288 285 285 284 287 289 291 297 296 298 295 299 293 293 299 297 296 293 291 288 289 293 293 292 292 293 292 291 289 288
292 296 299 297 301 301 300 298 292 285 285 285 288 289 294 296 297 295 297 299 294 297 300 294 293 292 292 293 300 300 298 297 297 295 293 292 290 288
299 300 304 309 309 309 311 301 292 286 280 280 283 286 291 295 294 291 289 290 286 295 296 289 293 291 295 294 298 298 298 298 299 298 296 294 291 289
303 301 302 306 315 315 306 300 297 293 287 279 277 282 286 289 288 287 288 287 284 283 285 285 293 295 298 294 296 296 299 300 300 300 300 298 295 292
305 302 302 301 314 315 305 300 299 299 295 287 285 285 289 290 290 286 286 288 288 287 285 284 295 303 297 289 295 299 300 301 301 303 303 301 298 295
307 306 306 309 315 314 305 302 302 306 306 302 293 287 285 285 283 277 280 282 289 290 289 290 294 308 300 290 301 305 303 301 302 303 304 301 300 295
300 304 305 313 313 313 311 305 307 309 304 302 300 300 299 296 294 288 282 277 278 276 289 297 292 294 283 295 300 302 303 306 307 303 301 303 302 298
298 302 309 317 316 316 317 321 320 316 309 308 305 307 310 309 304 300 291 281 274 275 283 283 278 283 287 290 293 300 304 304 305 305 306 308 304 300
304 310 313 316 319 320 326 325 321 316 312 308 307 308 309 309 307 305 301 295 288 281 279 278 277 281 279 281 290 297 302 304 303 305 306 305 305 305
308 308 311 314 315 321 322 323 322 318 314 308 309 308 310 311 309 311 309 310 305 301 296 292 287 283 281 282 285 291 296 295 303 305 304 302 301 299
311 302 304 309 316 322 323 323 322 319 317 314 313 313 312 311 312 313 309 308 301 306 312 313 303 291 282 280 284 286 293 296 300 304 305 301 298 297
309 299 302 305 309 314 315 315 315 315 315 312 310 311 313 314 315 314 312 309 307 307 307 311 313 308 295 273 258 280 291 298 304 305 304 299 301 304
296 296 299 302 303 304 306 307 309 312 311 308 308 310 311 312 314 315 315 313 311 310 310 310 310 309 307 308 299 269 293 302 305 304 302 298 297 303
293 295 298 301 300 300 303 305 308 310 310 309 309 309 311 312 312 314 313 313 312 311 311 310 309 309 303 302 302 300 295 292 298 302 304 301 296 295
298 299 299 298 297 298 301 303 304 305 308 308 307 310 312 311 310 311 310 311 309 309 311 312 310 307 296 290 289 297 304 296 288 293 303 304 306 312
294 295 297 298 298 299 300 302 302 304 307 307 309 310 311 308 307 308 309 310 309 310 309 307 311 313 308 302 302 307 310 313 303 288 281 280 289 302
294 294 293 295 296 297 298 300 300 302 304 306 306 307 308 306 306 305 305 305 307 310 312 312 314 313 307 303 304 307 310 314 316 319 316 309 291 283